Harrow, United Kingdom
Current Conditions -  °F | °C
As of 8:50 AM on Friday 24 Oct 2014 (Local Time) from EGWU Reporting Station
Broken Clouds Broken Clouds  
Wind Chill: 57°   Ceiling: 12000
Heat Index: 57°   Visibility: 6mi
Dew Point: 55°   Wind: 6mph
Humidity: 94%   Direction: 220°SW
Pressure: 29.97"   Gusts: NA
Location:  51.58°N, 0.33°W
Report Text: EGWU 240750Z 22005KT 9999 FEW018 SCT080 BKN120 14/13 Q1015 TEMPO SCT014
Loading
Personal Weather Stations






























Interactive Weather Map
Tropical Storm Tracking
New forecast layout! Learn more

10-Day Weather Forecast

Advertisements
Track Severe Weather on mobile